{"data":{"norad_id":67164,"intl_designator":"2025-303B","name":"STARLINK-36201","alt_names":[],"object_type":"PAYLOAD","status":"ACTIVE","operator":null,"country":"US","launch_date":"2025-12-17","launch_site_code":"AFETR","launch_vehicle":null,"mission":null,"orbit_class":"UNKNOWN","rcs_meters":null,"size_class":null,"mass_kg":null,"dimensions":null,"purposes":["comms"],"wikipedia_slug":null,"has_3d_model":false,"image_url":null,"decayed_at":null,"tle_current":{"epoch":"2026-09-20T08:56:15.226944Z","epoch_age_seconds":89553,"freshness":"FRESH","line1":"1 67164U 25303B   26263.37239846  .00011349  00000+0  42123-3 0  9990","line2":"2 67164  42.9983 290.8875 0000454  72.6986 287.3916 15.27584008 42519","mean_motion":15.27584008,"eccentricity":4.54e-5,"inclination_deg":42.9983,"raan_deg":290.8875,"arg_perigee_deg":72.6986,"mean_anomaly_deg":287.3916,"bstar":0.00042123,"rev_number":4251,"period_min":94.26650138118,"perigee_km":482.72559736812,"apogee_km":483.34859197592,"semimajor_km":6861.174094672,"source":"CELESTRAK","updated_at":"2026-09-21T09:00:36.110051Z"}}}